Bryce Canyon, UT

12:01 PM MST on December 06, 2019 (GMT -0700)
Bryce Canyon

Weather History for KBCE - August, 2019

Change the Weather History Date:

Thursday, August 29, 2019

  Actual Average Record
Temperature  
Mean Temperature 65 °F -  
Max Temperature 82 °F 74 °F 86 °F (2017)
Min Temperature 48 °F 41 °F 32 °F (1960)
Growing Degree Days 15 (Base 50)    
Moisture  
Dew Point 43 °F    
Average Humidity 45    
Maximum Humidity 71    
Minimum Humidity 24    
Precipitation  
Precipitation 0.02 in - - ()
Sea Level Pressure  
Sea Level Pressure 30.04 in    
Wind  
Wind Speed 7 mph (NW)    
Max Wind Speed 17 mph    
Max Gust Speed 24 mph    
Visibility 10 miles    
Events Rain , Thunderstorm    
Averages and records for this station are not official NWS values.
T = Trace of Precipitation, MM = Missing Value Source: NWS Daily Summary

Daily Weather History Graph

Daily Weather History Graph

Search for Another Location

Airport or City:

Astronomy

Aug. 29, 2019 Rise Set
Actual Time 6:56 AM MDT 8:02 PM MDT
Civil Twilight 6:29 AM MDT 8:29 PM MDT
Nautical Twilight 5:56 AM MDT 9:01 PM MDT
Astronomical Twilight 5:23 AM MDT 9:34 PM MDT
Moon 5:48 AM MDT (8/29) 8:00 PM MDT (8/29)
Length of Visible Light 14h 00m
Length of Day
13h 06m
Waning Crescent, 1% of the Moon is Illuminated
Aug 29
Waning Crescent
Aug 30
New
Sep 5
First Quarter
Sep 13
Full
Sep 21
Last Quarter

Hourly Weather History & Observations

Time (MDT) Temp. Dew Point Humidity Pressure Visibility Wind Dir Wind Speed Gust Speed Precip Events Conditions
12:53 AM 60.1 °F 45.0 °F 57% 30.03 in 10.0 mi NE 10.4 mph - N/A   Partly Cloudy
1:53 AM 59.0 °F 44.1 °F 58% 30.00 in 10.0 mi SSW 3.5 mph - N/A   Clear
2:53 AM 60.1 °F 43.0 °F 53% 29.97 in 10.0 mi WNW 8.1 mph - N/A   Clear
3:53 AM 55.9 °F 42.1 °F 60% 29.98 in 10.0 mi WNW 8.1 mph - N/A   Clear
4:53 AM 48.0 °F 39.0 °F 71% 30.01 in 10.0 mi West 4.6 mph - N/A   Clear
5:53 AM 50.0 °F 39.9 °F 68% 30.01 in 10.0 mi Calm Calm - N/A   Clear
6:53 AM 50.0 °F 39.9 °F 68% 30.06 in 10.0 mi Calm Calm - N/A   Clear
7:53 AM 55.9 °F 42.1 °F 60% 30.05 in 10.0 mi North 3.5 mph - N/A   Clear
8:53 AM 68.0 °F 44.1 °F 42% 30.01 in 10.0 mi Calm Calm - N/A   Clear
9:53 AM 73.9 °F 44.1 °F 34% 30.00 in 10.0 mi WNW 9.2 mph - N/A   Clear
10:53 AM 77.0 °F 46.0 °F 33% 30.01 in 10.0 mi NW 9.2 mph - N/A   Clear
11:53 AM 79.0 °F 45.0 °F 30% 30.01 in 10.0 mi NNW 15.0 mph 20.7 mph N/A   Clear
12:53 PM 79.0 °F 44.1 °F 29% 30.00 in 10.0 mi NW 9.2 mph 21.9 mph N/A   Partly Cloudy
1:23 PM 81.0 °F 44.1 °F 27% 30.38 in 10.0 mi NNW 12.7 mph 23.0 mph N/A Thunderstorm Partly Cloudy
1:38 PM 78.1 °F 44.1 °F 30% 30.38 in 10.0 mi WNW 16.1 mph 21.9 mph N/A   Scattered Clouds
1:53 PM 75.9 °F 41.0 °F 29% 30.00 in 10.0 mi NW 17.3 mph 24.2 mph N/A Thunderstorm Mostly Cloudy
2:29 PM 64.9 °F 48.9 °F 56% 30.40 in 10.0 mi North - - 0.00 in Rain Light Rain
2:53 PM 64.9 °F 48.9 °F 56% 30.04 in 10.0 mi North - - 0.02 in Rain Light Rain
3:53 PM 80.1 °F 43.0 °F 27% 29.96 in 10.0 mi WNW 8.1 mph - 0.00 in   Partly Cloudy
4:53 PM 80.1 °F 43.0 °F 27% 29.98 in 10.0 mi NNW 8.1 mph - N/A   Clear
5:53 PM 82.0 °F 42.1 °F 24% 29.96 in 10.0 mi North 10.4 mph - N/A   Scattered Clouds
6:53 PM 81.0 °F 41.0 °F 24% 29.94 in 10.0 mi WNW 3.5 mph - N/A   Scattered Clouds
7:53 PM 73.9 °F 39.9 °F 29% 29.97 in 10.0 mi WNW 9.2 mph - N/A   Clear
8:53 PM 62.1 °F 39.9 °F 44% 29.99 in 10.0 mi WSW 10.4 mph - N/A   Clear
9:53 PM 57.0 °F 39.0 °F 51% 30.00 in 10.0 mi West 5.8 mph - N/A   Clear
10:53 PM 54.0 °F 39.0 °F 57% 30.01 in 10.0 mi Calm Calm - N/A   Clear
11:53 PM 48.0 °F 37.9 °F 68% 30.02 in 10.0 mi Calm Calm - N/A   Clear